Flight Track Log - Related Links

Times and Time Zones

All times are in EDT time to prevent confusion due to time zone crossing. See the UAL4380 flight status page for this flight to view local times or setup timezone preferences in your user account.

Time Position Orientation Groundspeed Altitude Reporting Facility
EDT Latitude Longitude Course Direction KTS MPH feet Rate Location/Type
Tue 09:21:33 AM 29.9403 -95.3606 221° Southwest 213 245 1,900  Level Houston Center
Tue 09:22:21 AM 29.9708 -95.3817 329° Northwest 225 259 3,600 2,182 Climbing Houston Center
Tue 09:23:23 AM 30.0425 -95.3778 North 246 283 5,900 2,732 Climbing Houston Center
Tue 09:24:00 AM 30.3027 -95.5204 332° Northwest  Level FlightAware Approximate
Tue 09:24:24 AM 30.1358 -95.3694 North 273 314 9,200  Level Houston Center
Tue 09:25:00 AM 30.3823 -95.5679 334° Northwest  Level FlightAware Approximate
Tue 09:25:26 AM 30.2111 -95.4150 332° Northwest 303 349 10,600  Level Houston Center
Tue 09:26:00 AM 30.4631 -95.6128 334° Northwest  Level FlightAware Approximate
Tue 09:26:28 AM 30.2956 -95.4758 328° Northwest 343 395 11,400  Level Houston Center
Tue 09:27:30 AM 30.3856 -95.5425 327° Northwest 374 430 12,000 293 Climbing Houston Center
Tue 09:28:31 AM 30.4758 -95.6058 329° Northwest 380 437 12,000  Level Houston Center
Tue 09:29:33 AM 30.5686 -95.6706 329° Northwest 379 436 12,000  Level Houston Center
Tue 09:30:35 AM 30.6639 -95.7203 336° Northwest 383 441 12,000  Level Houston Center
Tue 09:31:37 AM 30.7839 -95.7842 335° Northwest 384 442 12,000  Level Houston Center
Tue 09:32:39 AM 30.8828 -95.8378 335° Northwest 388 447 12,000  Level Houston Center
Tue 09:33:40 AM 30.9811 -95.8903 335° Northwest 388 447 12,000  Level Houston Center
Tue 09:34:42 AM 31.0775 -95.9428 335° Northwest 383 441 12,000  Level Houston Center
Tue 09:35:44 AM 31.1800 -95.9797 343° North 386 444 12,000  Level Houston Center
Tue 09:36:06 AM 31.2283 -95.9947 345° North 381 438 12,000  Level Fort Worth Center
Tue 09:37:06 AM 31.3267 -96.0125 351° North 386 444 12,000  Level Fort Worth Center
Tue 09:38:06 AM 31.4356 -96.0400 348° North 381 438 12,000  Level Fort Worth Center
Tue 09:39:06 AM 31.5381 -96.0653 348° North 381 438 12,000  Level Fort Worth Center
Tue 09:40:06 AM 31.6447 -96.0908 348° North 376 433 12,000  Level Fort Worth Center
Tue 09:41:06 AM 31.7517 -96.1161 349° North 376 433 12,000  Level Fort Worth Center
Tue 09:42:06 AM 31.8542 -96.1414 348° North 380 437 12,000  Level Fort Worth Center
Tue 09:43:06 AM 31.9567 -96.1647 349° North 375 432 12,000  Level Fort Worth Center
Tue 09:44:06 AM 32.0614 -96.1903 348° North 375 432 12,000  Level Fort Worth Center
Tue 09:45:06 AM 32.1514 -96.2111 349° North 375 432 12,000 -550 Level Fort Worth Center
Tue 09:46:06 AM 32.2497 -96.2589 338° Northwest 375 432 10,900 -1,000 Descending Fort Worth Center
Tue 09:47:06 AM 32.3442 -96.3142 334° Northwest 352 405 10,000 -900 Descending Fort Worth Center
Tue 09:48:06 AM 32.4072 -96.3528 333° Northwest 300 345 9,100 -500 Descending Fort Worth Center
Tue 09:49:06 AM 32.4850 -96.4011 332° Northwest 280 322 9,000 -250 Descending Fort Worth Center
Tue 09:50:06 AM 32.5478 -96.4375 334° Northwest 285 328 8,600 -750 Descending Fort Worth Center
Tue 09:51:06 AM 32.6275 -96.4858 333° Northwest 290 334 7,500 -1,000 Descending Fort Worth Center
Tue 09:52:06 AM 32.6903 -96.5297 330° Northwest 290 334 6,600 -1,000 Descending Fort Worth Center
Tue 09:53:06 AM 32.7575 -96.5883 324° Northwest 279 321 5,500 -800 Descending Fort Worth Center
Tue 09:54:06 AM 32.8122 -96.6422 320° Northwest 279 321 5,000 -452 Descending Fort Worth Center
Tue 09:54:39 AM 32.8500 -96.6667 331° Northwest 272 313 4,800 -682 Descending Dallas / Fort Worth TRACON
Tue 09:55:34 AM 32.9167 -96.7333 320° Northwest 280 322 4,000 -400 Descending Dallas / Fort Worth TRACON
Tue 09:56:39 AM 32.9667 -96.7833 320° Northwest 235 270 4,000 -350 Level Dallas / Fort Worth TRACON
Tue 09:57:34 AM 32.9667 -96.8500 270° West 224 258 3,300 -650 Descending Dallas / Fort Worth TRACON
Tue 09:58:39 AM 32.9667 -96.9167 270° West 196 226 2,700 -624 Descending Dallas / Fort Worth TRACON
Tue 09:59:39 AM 32.9167 -96.9333 196° South 196 226 2,000 -700 Descending Dallas / Fort Worth TRACON

Login

Don't have an account? Register now (free) for customized features, flight alerts, and more!